Regional Weather Roundup
Issued by NWS Bismarck, ND

Home | Current Version | Previous Version | Text Only | Print | Product List | Glossary On
Versions: 1 2 3 4 5 6 7 8 9 10 11 12 13 14 15 16 17 18 19 20 21 22 23 24 25 26 27 28 29 30 31 32 33 34 35 36 37 38 39 40 41 42 43 44 45 46 47 48 49 50
000
ASUS43 KBIS 022210
RWRBIS

NWR BROADCAST TEXT
NATIONAL WEATHER SERVICE BISMARCK ND
500 PM CDT MON MAY 02 2016

NOTE: "FAIR" INDICATES FEW OR NO CLOUDS BELOW 12,000 FEET WITH NO
SIGNIFICANT WEATHER AND/OR OBSTRUCTIONS TO VISIBILITY.


CITY           SKY/WX    TMP DP  RH WIND       PRES   REMARKS
WILLISTON      SUNNY     74  27  17 N14G21    29.99F
MINOT          SUNNY     73  34  23 NE14      29.98S
MINOT AFB      SUNNY     68  37  32 E6        29.97S HAZE
BISMARCK       PTSUNNY   63  43  48 E10       29.97F
DICKINSON      SUNNY     67  31  26 N17G25    29.97S
GARRISON         N/A     68  37  32 NE10G16   29.98S
HETTINGER ARPT MOSUNNY   68  29  23 N23G37    29.96S
JAMESTOWN      SUNNY     60  40  47 S14       29.99F
CARRINGTON     FAIR      64  36  34 SE14G22   30.01S
OAKES            N/A    N/A N/A N/A MISG        N/A
STANLEY        FAIR      68  32  26 N12       30.02F
$$

CITY           SKY/WX    TMP DP  RH WIND       PRES   REMARKS
GRAND FORKS    PTSUNNY   71  26  18 VRB5      29.94F
GRAND FORKS AF SUNNY     70  25  18 E5        29.95F
DEVILS LAKE    SUNNY     65  33  30 S3        29.99F
FARGO          SUNNY     69  27  20 CALM      29.95F
CAVALIER       FAIR      72  32  23 S3        29.96F
GRAFTON        FAIR      70  30  23 E7G13     29.97F
GWINNER        MOCLDY    64  37  36 SW8       29.98F
LANGDON        FAIR      66  34  30 CALM      29.99S
$$

CITY           SKY/WX    TMP DP  RH WIND       PRES   REMARKS
ABERDEEN       PTSUNNY   61  42  49 NW8       30.00F
MOBRIDGE       PTSUNNY   62  46  55 SW8       29.94F
BUFFALO          N/A     68  32  26 NW24      29.92F
RAPID CITY     MOSUNNY   64  33  31 NW20G31   30.00F
GLASGOW        SUNNY     76  37  24 NW12      30.02F
SIDNEY         SUNNY     72  36  26 N16G23    29.99S
WOLF POINT     SUNNY     79  38  22 NW12G29   29.98F
GLENDIVE       PTSUNNY   72  37  28 N13G24    30.02F
MILES CITY     MOSUNNY   72  35  25 NW16G22   30.04F
BAKER          PTSUNNY   70  34  26 NW21G26   30.02F
$$

CITY           SKY/WX    TMP DP  RH WIND       PRES   REMARKS
BILLINGS       MOSUNNY   70  28  21 VRB3      30.12F
GREAT FALLS    SUNNY     71  29  21 N5        30.12
REGINA         PTSUNNY   73  30  20 N14G20    29.99F
ESTEVAN        MOSUNNY   75  34  22 CALM      29.98F
$$




USA.gov is the U.S. government's official web portal to all federal, state and local government web resources and services.